| time (UTC) | temp C | wind direction | speed KPH | gust KPH | rain 1hr cm | rain 24hr cm | rain mn cm | humidity % | barometer mb |
| 20260906124115 | 25 | 34 | 4.8 | 4.8 | 0.00 | 0.03 | 0.03 | 85 | 1014.4 |
| 20260906123614 | 25 | 18 | 0.0 | 3.2 | 0.00 | 0.03 | 0.03 | 86 | 1014.2 |
| 20260906123109 | 25 | 334 | 0.0 | 4.8 | 0.00 | 0.03 | 0.03 | 86 | 1014.4 |
| 20260906122608 | 24 | 35 | 4.8 | 4.8 | 0.00 | 0.03 | 0.03 | 88 | 1014.5 |
| 20260906122104 | 24 | 312 | 0.0 | 3.2 | 0.05 | 0.03 | 0.03 | 90 | 1014.3 |
| 20260906121600 | 23 | 0 | 3.2 | 3.2 | 0.05 | 0.03 | 0.03 | 92 | 1014.2 |
| 20260906121056 | 23 | 46 | 0.0 | 3.2 | 0.00 | 0.03 | 0.03 | 95 | 1014.2 |
| 20260906120551 | 23 | 328 | 0.0 | 0.0 | 0.00 | 0.03 | 0.03 | 96 | 1014.0 |
| 20260906120049 | 23 | 43 | 0.0 | 0.0 | 0.05 | 0.03 | 0.03 | 97 | 1014.1 |
| 20260906115548 | 22 | 20 | 0.0 | 1.6 | 0.05 | 0.03 | 0.03 | 97 | 1014.0 |
| 20260906115044 | 22 | 311 | 0.0 | 1.6 | 0.00 | 0.00 | 0.00 | 97 | 1014.1 |
| 20260906114537 | 22 | 283 | 0.0 | 1.6 | 0.00 | 0.00 | 0.00 | 97 | 1013.9 |
| 20260906114033 | 22 | 298 | 0.0 | 0.0 | 0.00 | 0.00 | 0.00 | 97 | 1014.0 |
| 20260906113532 | 22 | 282 | 0.0 | 1.6 | 0.00 | 0.00 | 0.00 | 97 | 1013.7 |
| 20260906113028 | 22 | 303 | 0.0 | 3.2 | 0.00 | 0.00 | 0.00 | 97 | 1013.9 |
| 20260906112522 | 22 | 288 | 0.0 | 1.6 | 0.00 | 0.00 | 0.00 | 97 | 1013.8 |
| 20260906112019 | 22 | 345 | 0.0 | 0.0 | 0.00 | 0.00 | 0.00 | 97 | 1013.8 |
| 20260906111518 | 22 | 297 | 0.0 | 1.6 | 0.00 | 0.00 | 0.00 | 97 | 1013.6 |
| 20260906111014 | 22 | 341 | 0.0 | 0.0 | 0.00 | 0.00 | 0.00 | 97 | 1013.8 |
| 20260906110508 | 22 | 280 | 0.0 | 0.0 | 0.00 | 0.00 | 0.00 | 97 | 1013.7 |
| 20260906110002 | 22 | 341 | 0.0 | 0.0 | 0.05 | 0.00 | 0.00 | 97 | 1013.5 |
| 20260906105458 | 22 | 308 | 0.0 | 1.6 | 0.05 | 0.00 | 0.00 | 97 | 1013.6 |
| 20260906104954 | 22 | 309 | 0.0 | 1.6 | 0.00 | 0.00 | 0.00 | 96 | 1013.3 |
| 20260906104452 | 22 | 326 | 0.0 | 3.2 | 0.00 | 0.00 | 0.00 | 96 | 1013.6 |
| 20260906103951 | 22 | 342 | 0.0 | 0.0 | 0.00 | 0.00 | 0.00 | 96 | 1013.4 |
| 20260906103449 | 22 | 323 | 0.0 | 1.6 | 0.00 | 0.00 | 0.00 | 96 | 1013.2 |
| 20260906102944 | 22 | 324 | 0.0 | 1.6 | 0.00 | 0.00 | 0.00 | 96 | 1013.1 |
| 20260906102439 | 22 | 318 | 0.0 | 1.6 | 0.00 | 0.00 | 0.00 | 96 | 1013.3 |
| 20260906101939 | 22 | 20 | 0.0 | 3.2 | 0.00 | 0.00 | 0.00 | 96 | 1013.2 |
| 20260906101435 | 22 | 282 | 0.0 | 1.6 | 0.00 | 0.00 | 0.00 | 96 | 1013.1 |
| 20260906100930 | 22 | 324 | 0.0 | 0.0 | 0.00 | 0.00 | 0.00 | 96 | 1013.1 |
| 20260906100430 | 22 | 279 | 0.0 | 1.6 | 0.00 | 0.00 | 0.00 | 96 | 1013.0 |
| 20260906095924 | 22 | 283 | 0.0 | 0.0 | 0.00 | 0.00 | 0.00 | 96 | 1013.0 |
| 20260906095420 | 22 | 35 | 0.0 | 0.0 | 0.00 | 0.00 | 0.00 | 95 | 1012.8 |
| 20260906094920 | 22 | 346 | 0.0 | 0.0 | 0.00 | 0.00 | 0.00 | 95 | 1013.0 |
| 20260906094414 | 23 | 288 | 0.0 | 0.0 | 0.00 | 0.00 | 0.00 | 95 | 1013.1 |
| 20260906093911 | 23 | 293 | 0.0 | 1.6 | 0.00 | 0.00 | 0.00 | 95 | 1012.9 |
| 20260906093407 | 23 | 288 | 0.0 | 1.6 | 0.00 | 0.00 | 0.00 | 95 | 1012.8 |
| 20260906092907 | 23 | 295 | 1.6 | 3.2 | 0.00 | 0.00 | 0.00 | 95 | 1012.8 |
| 20260906092406 | 23 | 292 | 0.0 | 1.6 | 0.00 | 0.00 | 0.00 | 95 | 1012.8 |
| 20260906091902 | 23 | 272 | 1.6 | 1.6 | 0.00 | 0.00 | 0.00 | 95 | 1012.8 |
| 20260906091358 | 23 | 256 | 0.0 | 0.0 | 0.00 | 0.00 | 0.00 | 95 | 1012.8 |
| 20260906090854 | 23 | 283 | 0.0 | 0.0 | 0.00 | 0.00 | 0.00 | 94 | 1012.7 |
| 20260906090353 | 23 | 297 | 0.0 | 1.6 | 0.00 | 0.00 | 0.00 | 94 | 1012.4 |
| 20260906085848 | 23 | 280 | 0.0 | 1.6 | 0.00 | 0.00 | 0.00 | 94 | 1012.7 |
| 20260906085347 | 23 | 287 | 0.0 | 1.6 | 0.00 | 0.00 | 0.00 | 94 | 1012.7 |
| 20260906084842 | 23 | 58 | 0.0 | 0.0 | 0.00 | 0.00 | 0.00 | 94 | 1012.7 |
| 20260906084342 | 23 | 294 | 0.0 | 1.6 | 0.00 | 0.00 | 0.00 | 93 | 1012.7 |
| 20260906083837 | 23 | 283 | 0.0 | 1.6 | 0.00 | 0.00 | 0.00 | 93 | 1012.5 |
| 20260906083332 | 23 | 328 | 0.0 | 1.6 | 0.00 | 0.00 | 0.00 | 93 | 1012.5 |
| 20260906082827 | 23 | 283 | 0.0 | 1.6 | 0.00 | 0.00 | 0.00 | 93 | 1012.7 |
| 20260906082322 | 23 | 278 | 0.0 | 3.2 | 0.00 | 0.00 | 0.00 | 92 | 1012.8 |
| 20260906081818 | 23 | 280 | 0.0 | 1.6 | 0.00 | 0.00 | 0.00 | 92 | 1012.5 |
| 20260906081314 | 23 | 301 | 0.0 | 3.2 | 0.00 | 0.00 | 0.00 | 92 | 1012.7 |
| 20260906080809 | 23 | 239 | 0.0 | 1.6 | 0.00 | 0.00 | 0.00 | 91 | 1012.5 |
| 20260906080306 | 24 | 293 | 0.0 | 1.6 | 0.00 | 0.00 | 0.00 | 91 | 1012.7 |
| 20260906075804 | 24 | 301 | 0.0 | 3.2 | 0.00 | 0.00 | 0.00 | 91 | 1012.7 |
| 20260906075306 | 24 | 335 | 0.0 | 3.2 | 0.00 | 0.00 | 0.00 | 91 | 1013.0 |
| 20260906074759 | 24 | 315 | 0.0 | 1.6 | 0.00 | 0.00 | 0.00 | 91 | 1013.0 |
| 20260906074259 | 24 | 52 | 0.0 | 1.6 | 0.00 | 0.00 | 0.00 | 91 | 1012.7 |
| 20260906073758 | 24 | 294 | 0.0 | 1.6 | 0.00 | 0.00 | 0.00 | 91 | 1012.6 |
| 20260906073253 | 24 | 316 | 1.6 | 3.2 | 0.00 | 0.00 | 0.00 | 91 | 1012.8 |
| 20260906072749 | 24 | 310 | 0.0 | 3.2 | 0.00 | 0.00 | 0.00 | 91 | 1012.8 |
| 20260906072244 | 24 | 359 | 0.0 | 1.6 | 0.00 | 0.00 | 0.00 | 91 | 1012.8 |
| 20260906071740 | 24 | 302 | 1.6 | 1.6 | 0.00 | 0.00 | 0.00 | 91 | 1013.0 |
| 20260906071240 | 25 | 309 | 0.0 | 3.2 | 0.00 | 0.00 | 0.00 | 91 | 1013.1 |
| 20260906070737 | 25 | 324 | 1.6 | 3.2 | 0.00 | 0.00 | 0.00 | 92 | 1013.0 |
| 20260906070232 | 25 | 293 | 0.0 | 3.2 | 0.00 | 0.00 | 0.00 | 92 | 1013.2 |
| 20260906065732 | 25 | 315 | 0.0 | 3.2 | 0.00 | 0.00 | 0.00 | 92 | 1013.3 |
| 20260906065227 | 25 | 344 | 1.6 | 3.2 | 0.00 | 0.00 | 0.00 | 91 | 1013.5 |
| 20260906064723 | 25 | 339 | 0.0 | 3.2 | 0.00 | 0.00 | 0.00 | 91 | 1013.5 |
| 20260906064218 | 25 | 1 | 3.2 | 3.2 | 0.00 | 0.00 | 0.00 | 91 | 1013.3 |
| 20260906063713 | 25 | 330 | 1.6 | 3.2 | 0.00 | 0.00 | 0.00 | 91 | 1013.4 |
| 20260906063209 | 25 | 339 | 3.2 | 3.2 | 0.00 | 0.00 | 0.00 | 91 | 1013.4 |
| 20260906062704 | 25 | 343 | 3.2 | 3.2 | 0.00 | 0.00 | 0.00 | 92 | 1013.4 |
| 20260906062203 | 25 | 315 | 1.6 | 1.6 | 0.00 | 0.00 | 0.00 | 91 | 1013.6 |
| 20260906061659 | 25 | 276 | 1.6 | 3.2 | 0.00 | 0.00 | 0.00 | 92 | 1013.6 |
| 20260906061155 | 25 | 305 | 0.0 | 3.2 | 0.00 | 0.00 | 0.00 | 91 | 1013.6 |
| 20260906060651 | 25 | 326 | 1.6 | 3.2 | 0.00 | 0.00 | 0.00 | 91 | 1013.6 |
| 20260906060148 | 25 | 9 | 0.0 | 3.2 | 0.00 | 0.00 | 0.00 | 92 | 1013.5 |
| 20260906055643 | 25 | 348 | 1.6 | 3.2 | 0.00 | 0.00 | 0.00 | 92 | 1013.5 |
| 20260906055139 | 25 | 299 | 0.0 | 1.6 | 0.00 | 0.00 | 0.00 | 92 | 1013.4 |
| 20260906054634 | 26 | 327 | 0.0 | 3.2 | 0.00 | 0.00 | 0.00 | 91 | 1013.5 |
| 20260906054129 | 26 | 346 | 0.0 | 1.6 | 0.00 | 0.00 | 0.00 | 91 | 1013.8 |
| 20260906053626 | 26 | 357 | 0.0 | 1.6 | 0.00 | 0.00 | 0.00 | 91 | 1013.7 |
| 20260906053126 | 26 | 1 | 1.6 | 3.2 | 0.00 | 0.00 | 0.00 | 93 | 1013.8 |
| 20260906052621 | 26 | 327 | 1.6 | 1.6 | 0.00 | 0.00 | 0.00 | 93 | 1013.5 |
| 20260906052118 | 26 | 293 | 0.0 | 1.6 | 0.00 | 0.00 | 0.00 | 94 | 1013.7 |
| 20260906051614 | 26 | 315 | 0.0 | 3.2 | 0.00 | 0.00 | 0.00 | 94 | 1013.7 |
| 20260906051108 | 27 | 318 | 0.0 | 0.0 | 0.00 | 0.00 | 0.00 | 94 | 1013.9 |
| 20260906050604 | 27 | 37 | 0.0 | 0.0 | 0.00 | 0.00 | 0.00 | 94 | 1013.7 |
| 20260906050059 | 27 | 333 | 0.0 | 1.6 | 0.00 | 0.00 | 0.00 | 94 | 1013.6 |
| 20260906045557 | 27 | 323 | 0.0 | 0.0 | 0.00 | 0.00 | 0.00 | 94 | 1013.7 |
| 20260906045053 | 27 | 294 | 0.0 | 1.6 | 0.00 | 0.00 | 0.00 | 94 | 1013.7 |
| 20260906044548 | 27 | 44 | 0.0 | 0.0 | 0.00 | 0.00 | 0.00 | 94 | 1014.0 |
| 20260906044044 | 27 | 319 | 0.0 | 0.0 | 0.00 | 0.00 | 0.00 | 94 | 1014.2 |
| 20260906043539 | 27 | 325 | 0.0 | 1.6 | 0.00 | 0.00 | 0.00 | 94 | 1013.9 |
| 20260906043036 | 27 | 313 | 0.0 | 1.6 | 0.00 | 0.00 | 0.00 | 94 | 1014.3 |
| 20260906042534 | 27 | 325 | 0.0 | 0.0 | 0.00 | 0.00 | 0.00 | 94 | 1014.2 |
| 20260906042029 | 27 | 331 | 0.0 | 0.0 | 0.00 | 0.00 | 0.00 | 94 | 1014.2 |
| 20260906041525 | 27 | 337 | 0.0 | 0.0 | 0.00 | 0.00 | 0.00 | 94 | 1014.2 |
| 20260906041025 | 27 | 319 | 0.0 | 1.6 | 0.00 | 0.00 | 0.00 | 94 | 1014.3 |
| 20260906040520 | 27 | 335 | 0.0 | 0.0 | 0.00 | 0.00 | 0.00 | 94 | 1014.3 |
| 20260906040016 | 27 | 328 | 0.0 | 0.0 | 0.00 | 0.00 | 0.00 | 94 | 1014.3 |
| 20260906035511 | 27 | 328 | 0.0 | 0.0 | 0.00 | 0.00 | 0.00 | 94 | 1014.5 |
| 20260906035007 | 27 | 325 | 1.6 | 1.6 | 0.00 | 0.00 | 0.00 | 93 | 1014.4 |
| 20260906034506 | 27 | 333 | 0.0 | 0.0 | 0.00 | 0.00 | 0.00 | 93 | 1014.3 |
| 20260906034001 | 27 | 323 | 0.0 | 0.0 | 0.00 | 0.00 | 0.00 | 93 | 1014.2 |
| 20260906033456 | 27 | 329 | 0.0 | 1.6 | 0.00 | 0.00 | 0.00 | 93 | 1014.2 |
| 20260906032952 | 27 | 338 | 3.2 | 3.2 | 0.00 | 0.00 | 0.00 | 93 | 1014.0 |
| 20260906032449 | 27 | 328 | 0.0 | 1.6 | 0.00 | 0.00 | 0.00 | 92 | 1014.1 |
| 20260906031948 | 27 | 336 | 1.6 | 1.6 | 0.00 | 0.00 | 0.00 | 92 | 1014.3 |
| 20260906031444 | 27 | 319 | 0.0 | 0.0 | 0.00 | 0.00 | 0.00 | 92 | 1014.3 |
| 20260906030939 | 27 | 335 | 0.0 | 1.6 | 0.00 | 0.00 | 0.00 | 91 | 1014.2 |
| 20260906030433 | 27 | 326 | 0.0 | 1.6 | 0.00 | 0.00 | 0.00 | 91 | 1014.1 |
| 20260906025928 | 27 | 327 | 0.0 | 1.6 | 0.00 | 0.00 | 0.00 | 91 | 1014.1 |
| 20260906025428 | 27 | 293 | 0.0 | 3.2 | 0.00 | 0.00 | 0.00 | 90 | 1014.2 |
| 20260906024927 | 28 | 47 | 0.0 | 1.6 | 0.00 | 0.00 | 0.00 | 90 | 1014.1 |
| 20260906024426 | 28 | 101 | 3.2 | 3.2 | 0.00 | 0.00 | 0.00 | 90 | 1013.9 |
| 20260906023922 | 28 | 215 | 1.6 | 9.7 | 0.00 | 0.00 | 0.00 | 91 | 1013.7 |
| 20260906023418 | 27 | 205 | 4.8 | 4.8 | 0.00 | 0.00 | 0.00 | 91 | 1013.7 |
| 20260906022918 | 28 | 259 | 1.6 | 4.8 | 0.00 | 0.00 | 0.00 | 90 | 1013.4 |
| 20260906022413 | 28 | 105 | 0.0 | 3.2 | 0.00 | 0.00 | 0.00 | 90 | 1013.3 |
| 20260906021909 | 28 | 296 | 1.6 | 6.4 | 0.00 | 0.00 | 0.00 | 90 | 1013.0 |
| 20260906021409 | 27 | 224 | 6.4 | 9.7 | 0.00 | 0.00 | 0.00 | 90 | 1013.0 |
| 20260906020903 | 27 | 238 | 3.2 | 3.2 | 0.00 | 0.00 | 0.00 | 90 | 1013.7 |
| 20260906020402 | 28 | 301 | 0.0 | 3.2 | 0.00 | 0.00 | 0.00 | 90 | 1013.9 |
| 20260906015857 | 28 | 36 | 0.0 | 3.2 | 0.00 | 0.00 | 0.00 | 90 | 1013.5 |
| 20260906015357 | 28 | 52 | 0.0 | 3.2 | 0.00 | 0.00 | 0.00 | 90 | 1013.5 |
| 20260906014857 | 28 | 57 | 0.0 | 3.2 | 0.00 | 0.00 | 0.00 | 90 | 1013.4 |
| 20260906014356 | 28 | 182 | 3.2 | 4.8 | 0.00 | 0.00 | 0.00 | 90 | 1012.9 |
| 20260906013853 | 28 | 216 | 4.8 | 9.7 | 0.00 | 0.00 | 0.00 | 89 | 1012.2 |
| 20260906013348 | 28 | 263 | 3.2 | 8.0 | 0.00 | 0.00 | 0.00 | 89 | 1012.4 |
| 20260906012843 | 28 | 224 | 0.0 | 6.4 | 0.00 | 0.00 | 0.00 | 89 | 1012.8 |
| 20260906012338 | 28 | 209 | 3.2 | 3.2 | 0.00 | 0.00 | 0.00 | 88 | 1013.1 |
| 20260906011838 | 28 | 327 | 1.6 | 4.8 | 0.00 | 0.00 | 0.00 | 88 | 1013.4 |
| 20260906011333 | 28 | 219 | 1.6 | 6.4 | 0.00 | 0.00 | 0.00 | 88 | 1013.5 |
| 20260906010829 | 28 | 226 | 4.8 | 9.7 | 0.00 | 0.00 | 0.00 | 88 | 1013.7 |
| 20260906010325 | 28 | 238 | 4.8 | 4.8 | 0.00 | 0.00 | 0.00 | 88 | 1013.7 |
| 20260906005820 | 28 | 202 | 1.6 | 6.4 | 0.00 | 0.00 | 0.00 | 88 | 1013.7 |
| 20260906005319 | 28 | 47 | 0.0 | 4.8 | 0.00 | 0.00 | 0.00 | 88 | 1013.6 |
| 20260906004818 | 28 | 182 | 4.8 | 4.8 | 0.00 | 0.00 | 0.00 | 88 | 1013.5 |
| 20260906004318 | 28 | 205 | 4.8 | 8.0 | 0.00 | 0.00 | 0.00 | 88 | 1013.5 |
| 20260906003813 | 28 | 228 | 8.0 | 8.0 | 0.00 | 0.00 | 0.00 | 88 | 1013.7 |
| 20260906003309 | 28 | 235 | 3.2 | 6.4 | 0.00 | 0.00 | 0.00 | 88 | 1013.7 |
| 20260906002804 | 28 | 214 | 4.8 | 9.7 | 0.00 | 0.00 | 0.00 | 88 | 1013.6 |
| 20260906002306 | 28 | 214 | 4.8 | 6.4 | 0.00 | 0.00 | 0.00 | 87 | 1013.8 |
| 20260906001759 | 28 | 224 | 4.8 | 6.4 | 0.00 | 0.00 | 0.00 | 88 | 1014.1 |
| 20260906001254 | 28 | 145 | 1.6 | 4.8 | 0.00 | 0.00 | 0.00 | 87 | 1014.3 |
| 20260906000750 | 28 | 225 | 3.2 | 8.0 | 0.00 | 0.00 | 0.00 | 87 | 1014.0 |
| 20260906000250 | 28 | 185 | 4.8 | 8.0 | 0.00 | 0.00 | 0.00 | 87 | 1014.1 |
| 20260905235745 | 28 | 195 | 4.8 | 8.0 | 0.00 | 0.00 | 0.00 | 86 | 1014.1 |
| 20260905235244 | 28 | 231 | 3.2 | 8.0 | 0.00 | 0.00 | 0.00 | 86 | 1013.8 |
| 20260905234740 | 28 | 266 | 1.6 | 6.4 | 0.00 | 0.00 | 0.00 | 86 | 1013.9 |
| 20260905234235 | 28 | 228 | 3.2 | 8.0 | 0.00 | 0.00 | 0.00 | 86 | 1014.0 |
| 20260905233730 | 28 | 236 | 6.4 | 17.7 | 0.00 | 0.00 | 0.00 | 86 | 1014.1 |
| 20260905233230 | 28 | 184 | 4.8 | 9.7 | 0.00 | 0.00 | 0.00 | 86 | 1014.2 |
| 20260905232724 | 28 | 227 | 4.8 | 16.1 | 0.00 | 0.00 | 0.00 | 86 | 1013.9 |
| 20260905232220 | 28 | 200 | 3.2 | 12.9 | 0.00 | 0.00 | 0.00 | 86 | 1014.2 |
| 20260905231716 | 28 | 216 | 8.0 | 9.7 | 0.00 | 0.00 | 0.00 | 86 | 1013.9 |
| 20260905231211 | 28 | 208 | 9.7 | 9.7 | 0.00 | 0.00 | 0.00 | 86 | 1013.9 |
| 20260905230708 | 28 | 240 | 4.8 | 12.9 | 0.00 | 0.00 | 0.00 | 86 | 1013.8 |
| 20260905230205 | 29 | 231 | 6.4 | 11.3 | 0.00 | 0.00 | 0.00 | 85 | 1013.8 |
| 20260905225704 | 29 | 198 | 6.4 | 6.4 | 0.00 | 0.00 | 0.00 | 84 | 1013.8 |
| 20260905225200 | 29 | 267 | 3.2 | 9.7 | 0.00 | 0.00 | 0.00 | 85 | 1013.8 |
| 20260905224659 | 29 | 230 | 1.6 | 16.1 | 0.00 | 0.00 | 0.00 | 84 | 1013.9 |
| 20260905224154 | 29 | 250 | 6.4 | 9.7 | 0.00 | 0.00 | 0.00 | 83 | 1014.0 |
| 20260905223651 | 30 | 227 | 14.5 | 14.5 | 0.00 | 0.00 | 0.00 | 84 | 1013.7 |
| 20260905223147 | 30 | 233 | 4.8 | 14.5 | 0.00 | 0.00 | 0.00 | 83 | 1013.5 |
| 20260905222642 | 30 | 222 | 11.3 | 16.1 | 0.00 | 0.00 | 0.00 | 83 | 1013.6 |
| 20260905222137 | 30 | 226 | 9.7 | 19.3 | 0.00 | 0.00 | 0.00 | 83 | 1013.4 |
| 20260905221633 | 30 | 232 | 9.7 | 9.7 | 0.00 | 0.00 | 0.00 | 82 | 1013.7 |
| 20260905221130 | 30 | 215 | 12.9 | 16.1 | 0.00 | 0.00 | 0.00 | 82 | 1013.7 |
| 20260905220625 | 30 | 226 | 9.7 | 14.5 | 0.00 | 0.00 | 0.00 | 83 | 1013.6 |
| 20260905220121 | 30 | 221 | 6.4 | 17.7 | 0.00 | 0.00 | 0.00 | 83 | 1013.6 |
| 20260905215620 | 30 | 219 | 4.8 | 17.7 | 0.00 | 0.00 | 0.00 | 82 | 1013.7 |
| 20260905215116 | 30 | 217 | 11.3 | 16.1 | 0.00 | 0.00 | 0.00 | 81 | 1013.5 |
| 20260905214612 | 30 | 229 | 9.7 | 19.3 | 0.00 | 0.00 | 0.00 | 81 | 1013.4 |
| 20260905214112 | 30 | 172 | 6.4 | 9.7 | 0.00 | 0.00 | 0.00 | 81 | 1013.3 |
| 20260905213607 | 30 | 231 | 6.4 | 14.5 | 0.00 | 0.00 | 0.00 | 81 | 1013.6 |
| 20260905213103 | 30 | 225 | 14.5 | 17.7 | 0.00 | 0.00 | 0.00 | 81 | 1013.7 |
| 20260905212602 | 30 | 206 | 4.8 | 14.5 | 0.00 | 0.00 | 0.00 | 81 | 1013.7 |
| 20260905212102 | 30 | 251 | 6.4 | 11.3 | 0.00 | 0.00 | 0.00 | 82 | 1013.6 |
| 20260905211557 | 30 | 239 | 6.4 | 16.1 | 0.00 | 0.00 | 0.00 | 81 | 1013.5 |
| 20260905211053 | 30 | 220 | 8.0 | 17.7 | 0.00 | 0.00 | 0.00 | 82 | 1013.4 |
| 20260905210548 | 30 | 238 | 8.0 | 22.5 | 0.00 | 0.00 | 0.00 | 81 | 1013.3 |
| 20260905210043 | 30 | 247 | 8.0 | 17.7 | 0.00 | 0.00 | 0.00 | 80 | 1013.5 |
| 20260905205543 | 30 | 216 | 14.5 | 17.7 | 0.00 | 0.00 | 0.00 | 81 | 1013.3 |
| 20260905205042 | 31 | 214 | 12.9 | 20.9 | 0.00 | 0.00 | 0.00 | 79 | 1013.4 |
| 20260905204537 | 30 | 217 | 11.3 | 19.3 | 0.00 | 0.00 | 0.00 | 80 | 1013.2 |
| 20260905204032 | 31 | 201 | 14.5 | 19.3 | 0.00 | 0.00 | 0.00 | 79 | 1013.1 |
| 20260905203532 | 31 | 227 | 12.9 | 20.9 | 0.00 | 0.00 | 0.00 | 78 | 1013.2 |
| 20260905203027 | 31 | 248 | 8.0 | 17.7 | 0.00 | 0.00 | 0.00 | 78 | 1013.1 |
| 20260905202523 | 31 | 213 | 12.9 | 17.7 | 0.00 | 0.00 | 0.00 | 79 | 1013.0 |
| 20260905202018 | 31 | 199 | 14.5 | 16.1 | 0.00 | 0.00 | 0.00 | 78 | 1012.9 |
| 20260905201514 | 31 | 242 | 8.0 | 19.3 | 0.00 | 0.00 | 0.00 | 80 | 1013.1 |
| 20260905201013 | 31 | 207 | 11.3 | 16.1 | 0.00 | 0.00 | 0.00 | 78 | 1013.1 |
| 20260905200509 | 31 | 227 | 12.9 | 16.1 | 0.00 | 0.00 | 0.00 | 78 | 1013.0 |
| 20260905200008 | 31 | 242 | 8.0 | 17.7 | 0.00 | 0.00 | 0.00 | 79 | 1013.0 |
| 20260905195503 | 31 | 206 | 17.7 | 20.9 | 0.00 | 0.00 | 0.00 | 78 | 1013.2 |
| 20260905194958 | 31 | 230 | 11.3 | 19.3 | 0.00 | 0.00 | 0.00 | 78 | 1013.3 |
| 20260905194458 | 31 | 228 | 8.0 | 14.5 | 0.00 | 0.00 | 0.00 | 79 | 1013.4 |
| 20260905193958 | 31 | 207 | 17.7 | 20.9 | 0.00 | 0.00 | 0.00 | 77 | 1013.4 |
| 20260905193458 | 31 | 243 | 8.0 | 16.1 | 0.00 | 0.00 | 0.00 | 79 | 1013.3 |
| 20260905192953 | 31 | 232 | 12.9 | 20.9 | 0.00 | 0.00 | 0.00 | 78 | 1013.2 |
| 20260905192448 | 31 | 236 | 6.4 | 14.5 | 0.00 | 0.00 | 0.00 | 78 | 1013.5 |
| 20260905191944 | 31 | 234 | 8.0 | 16.1 | 0.00 | 0.00 | 0.00 | 77 | 1013.6 |
| 20260905191443 | 31 | 240 | 4.8 | 17.7 | 0.00 | 0.00 | 0.00 | 78 | 1013.7 |
| 20260905190943 | 31 | 227 | 8.0 | 14.5 | 0.00 | 0.00 | 0.00 | 78 | 1013.8 |
| 20260905190441 | 31 | 217 | 4.8 | 17.7 | 0.00 | 0.00 | 0.00 | 79 | 1014.0 |
| 20260905185940 | 31 | 208 | 8.0 | 17.7 | 0.00 | 0.00 | 0.00 | 76 | 1014.1 |
| 20260905185435 | 31 | 232 | 8.0 | 16.1 | 0.00 | 0.00 | 0.00 | 77 | 1014.2 |
| 20260905184934 | 31 | 215 | 11.3 | 19.3 | 0.00 | 0.00 | 0.00 | 76 | 1014.3 |
| 20260905184428 | 31 | 234 | 17.7 | 19.3 | 0.00 | 0.00 | 0.00 | 77 | 1014.3 |
| 20260905183927 | 31 | 212 | 9.7 | 19.3 | 0.00 | 0.00 | 0.00 | 76 | 1014.4 |
| 20260905183422 | 31 | 194 | 12.9 | 16.1 | 0.00 | 0.00 | 0.00 | 76 | 1014.4 |
| 20260905182917 | 31 | 239 | 6.4 | 11.3 | 0.00 | 0.00 | 0.00 | 77 | 1014.5 |
| 20260905182416 | 31 | 239 | 8.0 | 16.1 | 0.00 | 0.00 | 0.00 | 78 | 1014.5 |
| 20260905181912 | 31 | 244 | 4.8 | 14.5 | 0.00 | 0.00 | 0.00 | 76 | 1014.7 |
| 20260905181412 | 31 | 226 | 11.3 | 16.1 | 0.00 | 0.00 | 0.00 | 78 | 1014.5 |
| 20260905180911 | 31 | 234 | 11.3 | 17.7 | 0.00 | 0.00 | 0.00 | 77 | 1014.8 |
| 20260905180406 | 31 | 240 | 8.0 | 14.5 | 0.00 | 0.00 | 0.00 | 77 | 1014.6 |
| 20260905175901 | 31 | 202 | 11.3 | 11.3 | 0.00 | 0.00 | 0.00 | 79 | 1014.6 |
| 20260905175401 | 31 | 226 | 8.0 | 14.5 | 0.00 | 0.00 | 0.00 | 78 | 1014.7 |
| 20260905174901 | 31 | 225 | 8.0 | 17.7 | 0.00 | 0.00 | 0.00 | 76 | 1014.8 |
| 20260905174357 | 31 | 222 | 16.1 | 17.7 | 0.00 | 0.00 | 0.00 | 77 | 1014.9 |
| 20260905173852 | 31 | 226 | 8.0 | 17.7 | 0.00 | 0.00 | 0.00 | 77 | 1014.9 |
| 20260905173348 | 31 | 230 | 6.4 | 16.1 | 0.00 | 0.00 | 0.00 | 77 | 1015.1 |
| 20260905172843 | 31 | 202 | 9.7 | 17.7 | 0.00 | 0.00 | 0.00 | 77 | 1015.4 |
| 20260905172341 | 31 | 223 | 4.8 | 9.7 | 0.00 | 0.00 | 0.00 | 77 | 1015.4 |
| 20260905171837 | 32 | 216 | 11.3 | 12.9 | 0.00 | 0.00 | 0.00 | 77 | 1015.3 |
| 20260905171334 | 31 | 225 | 9.7 | 16.1 | 0.00 | 0.00 | 0.00 | 77 | 1015.2 |
| 20260905170830 | 31 | 225 | 9.7 | 16.1 | 0.00 | 0.00 | 0.00 | 75 | 1015.4 |
| 20260905170326 | 32 | 220 | 11.3 | 16.1 | 0.00 | 0.00 | 0.00 | 76 | 1015.4 |
| 20260905165825 | 32 | 201 | 11.3 | 14.5 | 0.00 | 0.00 | 0.00 | 76 | 1015.5 |
| 20260905165321 | 32 | 199 | 8.0 | 12.9 | 0.00 | 0.00 | 0.00 | 74 | 1015.6 |
| 20260905164820 | 32 | 215 | 14.5 | 14.5 | 0.00 | 0.00 | 0.00 | 74 | 1015.8 |
| 20260905164315 | 32 | 228 | 8.0 | 8.0 | 0.00 | 0.00 | 0.00 | 73 | 1015.8 |
| 20260905163811 | 33 | 237 | 6.4 | 12.9 | 0.00 | 0.00 | 0.00 | 71 | 1015.8 |
| 20260905163307 | 33 | 199 | 8.0 | 12.9 | 0.00 | 0.00 | 0.00 | 70 | 1016.1 |
| 20260905162803 | 33 | 179 | 1.6 | 4.8 | 0.00 | 0.00 | 0.00 | 66 | 1016.1 |
| 20260905162257 | 33 | 24 | 0.0 | 3.2 | 0.00 | 0.00 | 0.00 | 65 | 1016.1 |
| 20260905161757 | 33 | 166 | 3.2 | 4.8 | 0.00 | 0.00 | 0.00 | 63 | 1016.4 |
| 20260905161256 | 33 | 333 | 1.6 | 3.2 | 0.00 | 0.00 | 0.00 | 68 | 1016.5 |
| 20260905160755 | 32 | 184 | 1.6 | 4.8 | 0.00 | 0.00 | 0.00 | 67 | 1016.6 |
| 20260905160249 | 32 | 307 | 1.6 | 1.6 | 0.00 | 0.00 | 0.00 | 65 | 1016.7 |
| 20260905155744 | 33 | 245 | 3.2 | 4.8 | 0.00 | 0.00 | 0.00 | 69 | 1016.6 |
| 20260905155243 | 32 | 220 | 0.0 | 4.8 | 0.00 | 0.00 | 0.00 | 66 | 1016.5 |
| 20260905154737 | 32 | 223 | 6.4 | 9.7 | 0.00 | 0.00 | 0.00 | 67 | 1016.7 |
| 20260905154233 | 32 | 91 | 3.2 | 4.8 | 0.00 | 0.00 | 0.00 | 68 | 1016.8 |
| 20260905153728 | 32 | 162 | 0.0 | 4.8 | 0.00 | 0.00 | 0.00 | 67 | 1016.8 |
| 20260905153224 | 32 | 209 | 0.0 | 4.8 | 0.00 | 0.00 | 0.00 | 71 | 1016.7 |
| 20260905152719 | 32 | 155 | 3.2 | 4.8 | 0.00 | 0.00 | 0.00 | 72 | 1016.7 |
| 20260905152213 | 32 | 244 | 3.2 | 4.8 | 0.00 | 0.00 | 0.00 | 72 | 1016.8 |
| 20260905151713 | 32 | 51 | 3.2 | 6.4 | 0.00 | 0.00 | 0.00 | 70 | 1016.6 |
| 20260905151209 | 32 | 241 | 1.6 | 3.2 | 0.00 | 0.00 | 0.00 | 72 | 1016.7 |
| 20260905150704 | 31 | 303 | 3.2 | 6.4 | 0.00 | 0.00 | 0.00 | 76 | 1016.9 |
| 20260905150202 | 31 | 168 | 1.6 | 3.2 | 0.00 | 0.00 | 0.00 | 74 | 1016.9 |
| 20260905145700 | 32 | 92 | 1.6 | 8.0 | 0.00 | 0.00 | 0.00 | 71 | 1016.8 |
| 20260905145155 | 31 | 49 | 3.2 | 3.2 | 0.00 | 0.00 | 0.00 | 72 | 1016.7 |
| 20260905144649 | 31 | 315 | 0.0 | 4.8 | 0.00 | 0.00 | 0.00 | 76 | 1016.8 |
| 20260905144148 | 31 | 357 | 0.0 | 4.8 | 0.00 | 0.00 | 0.00 | 73 | 1016.7 |
| 20260905143649 | 31 | 193 | 1.6 | 4.8 | 0.00 | 0.00 | 0.00 | 76 | 1016.7 |
| 20260905143148 | 31 | 195 | 6.4 | 8.0 | 0.00 | 0.00 | 0.00 | 75 | 1016.9 |
| 20260905142647 | 30 | 245 | 4.8 | 8.0 | 0.00 | 0.00 | 0.00 | 79 | 1016.8 |
| 20260905142147 | 30 | 228 | 6.4 | 9.7 | 0.00 | 0.00 | 0.00 | 78 | 1016.8 |
| 20260905141642 | 30 | 188 | 3.2 | 6.4 | 0.00 | 0.00 | 0.00 | 79 | 1016.9 |
| 20260905141138 | 30 | 130 | 1.6 | 3.2 | 0.00 | 0.00 | 0.00 | 79 | 1016.8 |
| 20260905140633 | 30 | 325 | 1.6 | 6.4 | 0.00 | 0.00 | 0.00 | 79 | 1016.7 |
| 20260905140133 | 30 | 78 | 6.4 | 6.4 | 0.00 | 0.00 | 0.00 | 78 | 1016.6 |
| 20260905135628 | 30 | 301 | 3.2 | 11.3 | 0.00 | 0.00 | 0.00 | 80 | 1016.8 |
| 20260905135123 | 30 | 114 | 3.2 | 4.8 | 0.00 | 0.00 | 0.00 | 79 | 1016.9 |
| 20260905134618 | 30 | 321 | 3.2 | 4.8 | 0.00 | 0.00 | 0.00 | 83 | 1016.7 |
| 20260905134117 | 29 | 132 | 1.6 | 4.8 | 0.00 | 0.00 | 0.00 | 84 | 1017.0 |
| 20260905133613 | 28 | 269 | 0.0 | 8.0 | 0.00 | 0.00 | 0.00 | 86 | 1017.0 |
| 20260905133112 | 28 | 205 | 0.0 | 3.2 | 0.00 | 0.00 | 0.00 | 87 | 1017.0 |
| 20260905132612 | 28 | 59 | 3.2 | 4.8 | 0.00 | 0.00 | 0.00 | 88 | 1016.9 |
| 20260905132107 | 28 | 40 | 3.2 | 3.2 | 0.00 | 0.00 | 0.00 | 89 | 1016.9 |
| 20260905131602 | 28 | 234 | 1.6 | 4.8 | 0.00 | 0.00 | 0.00 | 91 | 1016.9 |
| 20260905131057 | 27 | 123 | 0.0 | 1.6 | 0.00 | 0.00 | 0.00 | 91 | 1016.9 |
| 20260905130556 | 27 | 339 | 0.0 | 3.2 | 0.00 | 0.00 | 0.00 | 92 | 1017.0 |
| 20260905130051 | 27 | 71 | 4.8 | 4.8 | 0.00 | 0.00 | 0.00 | 94 | 1017.2 |
| 20260905125551 | 27 | 251 | 0.0 | 3.2 | 0.00 | 0.00 | 0.00 | 96 | 1017.0 |
| 20260905125047 | 26 | 185 | 0.0 | 3.2 | 0.00 | 0.00 | 0.00 | 97 | 1017.0 |
| 20260905124543 | 26 | 269 | 0.0 | 3.2 | 0.00 | 0.00 | 0.00 | 97 | 1016.9 |